[[{"header":{"parameterUnit":"m.s-1","parameterCategory":1,"la1":30.2991,"la2":30.254,"lo1":-89.0895,"lo2":-89.0444,"dy":0.0017,"dx":0.0017,"nx":28,"ny":28,"refTime":"2025-04-21T09:00:00:Z","depth":0,"parameterNumber":2,"parameterNumberName":"U-component_of_WINDS"},"data":[0,0,0,0,0,0,0,0,0,0,0,0,0,0,0,0,0,0,0,0,0,0,0,0,0,0,0,0,0,0,0,0,0,0,0,0,0,0,0,0,0,0,0,0,0,0,0,0,0,0,0,0,0,0,0,0,0,0,-1.7741,-1.7741,0,-1.7744,-1.7744,-1.7744,-1.7724,-1.7723,-1.7723,-1.7722,-1.7726,-1.7727,-1.7728,0,0,0,0,0,0,0,0,0,0,0,0,0,-1.772,-1.7721,-1.7741,-1.7741,-1.7741,-1.7744,-1.7744,-1.7744,-1.7724,-1.7723,-1.7723,-1.7722,-1.7726,-1.7727,-1.7728,0,0,0,0,0,0,0,0,0,0,0,0,0,-1.7727,-1.7721,-1.7741,-1.7731,-1.7731,-1.7744,-1.7744,-1.7744,-1.7724,-1.7723,-1.7723,-1.7722,-1.7726,-1.7727,-1.7728,-1.775,0,0,-1.7731,-1.7731,0,0,0,0,0,0,0,0,-1.7726,-1.7728,-1.7733,-1.7732,-1.7731,-1.7733,-1.7738,-1.7746,-1.7724,-1.7727,-1.7722,-1.7721,-1.7729,-1.773,-1.7732,-1.775,-1.7751,-1.7731,-1.7731,-1.7732,-1.7732,0,0,0,0,0,0,0,-1.7726,-1.7727,-1.7742,-1.7733,-1.7732,-1.7728,-1.7728,-1.7739,-1.7733,-1.7726,-1.7725,-1.7726,-1.7729,-1.7731,-1.7732,-1.7751,-1.7731,-1.7732,-1.7732,-1.7732,-1.7789,-1.779,0,0,0,0,0,0,-1.7727,-1.7727,-1.7742,-1.7742,-1.7727,-1.7729,-1.7729,-1.7733,-1.7732,-1.7732,-1.7726,-1.7725,-1.773,-1.7731,-1.7732,-1.7759,-1.7732,-1.7733,-1.7733,-1.7788,-1.7789,-1.779,0,0,0,0,0,0,-1.7726,-1.7728,-1.7742,-1.7734,-1.7736,-1.773,-1.7735,-1.7733,-1.7736,-1.7732,-1.7731,-1.773,-1.773,-1.7731,-1.7746,-1.7759,-1.7733,-1.7734,-1.7787,-1.7788,-1.779,-1.7812,0,0,0,0,0,0,-1.7726,-1.7728,-1.7736,-1.7734,-1.7736,-1.7755,-1.7736,-1.7734,-1.7738,-1.7736,-1.7736,-1.7735,-1.7729,-1.7745,-1.7747,-1.7759,-1.7735,-1.7786,-1.7787,-1.7789,-1.781,-1.7814,-1.7817,0,0,0,0,0,-1.7725,-1.7742,-1.7736,-1.7738,-1.7746,-1.7756,-1.7757,-1.7749,-1.7739,-1.7747,-1.7745,-1.7735,-1.7757,-1.7747,-1.7749,-1.7762,-1.7785,-1.7787,-1.7789,-1.7808,-1.7813,-1.7817,0,0,0,0,0,0,-1.7745,-1.7742,-1.7735,-1.7752,-1.7754,-1.7752,-1.7762,-1.7754,-1.776,-1.7757,-1.7748,-1.7749,-1.7766,-1.7765,-1.7754,-1.7784,-1.7769,-1.7772,-1.7783,-1.7788,-1.7791,-1.7791,-1.7735,0,0,0,0,0,-1.7752,-1.776,-1.7756,-1.7772,-1.7773,-1.7768,-1.7772,-1.7766,-1.7768,-1.7769,-1.7768,-1.777,-1.7778,-1.7783,-1.779,-1.7811,-1.7811,-1.7821,-1.7824,-1.7827,-1.783,-1.7841,-1.7846,-1.7797,-1.7797,-1.7797,0,0,-1.7765,-1.7764,-1.777,-1.7776,-1.7777,-1.7786,-1.7768,-1.7778,-1.7785,-1.777,-1.7784,-1.7784,-1.7787,-1.7805,-1.7813,-1.7805,-1.7843,-1.783,-1.7833,-1.7833,-1.7844,-1.7848,-1.7852,-1.7798,-1.7798,-1.7798,0,0,-1.7794,-1.7794,-1.7807,-1.7808,-1.781,-1.7806,-1.781,-1.7809,-1.7808,-1.7822,-1.7812,-1.782,-1.7833,-1.7836,-1.7839,-1.787,-1.7861,-1.7873,-1.7891,-1.7903,-1.7907,-1.791,-1.7921,-1.7925,-1.7875,-1.7875,-1.7875,0,-1.781,-1.7822,-1.7815,-1.7825,-1.7829,-1.7816,-1.783,-1.7832,-1.7836,-1.7839,-1.783,-1.7848,-1.7848,-1.7867,-1.7875,-1.7878,-1.7882,-1.7872,-1.7907,-1.791,-1.7913,-1.7924,-1.7928,-1.7877,-1.7877,-1.7876,-1.7876,0,-1.7842,-1.7851,-1.7862,-1.7866,-1.7871,-1.7883,-1.7878,-1.7884,-1.7878,-1.7876,-1.7891,-1.7892,-1.7899,-1.7904,-1.7898,-1.7922,-1.7917,-1.7908,-1.7893,-1.7919,-1.7929,-1.7933,-1.7879,-1.7878,-1.7878,-1.7877,0,0,-1.7882,-1.7883,-1.7887,-1.7889,-1.7891,-1.7898,-1.791,-1.7917,-1.7922,-1.7926,-1.7936,-1.7949,-1.7941,-1.7944,-1.7939,-1.7949,-1.7975,-1.7939,-1.7939,-1.7945,-1.8001,-1.8008,-1.8012,-1.7969,-1.797,-1.7971,-1.8001,0,-1.791,-1.793,-1.7924,-1.7944,-1.7953,-1.7942,-1.7953,-1.7956,-1.7955,-1.7962,-1.7961,-1.797,-1.7959,-1.7961,-1.797,-1.7969,-1.7986,-1.7967,-1.7979,-1.798,-1.7978,-1.8017,-1.8024,-1.8052,-1.8005,-1.8005,-1.8006,0,-1.7944,-1.7949,-1.7971,-1.7972,-1.7975,-1.7985,-1.7991,-1.7999,-1.8002,-1.8001,-1.8005,-1.7999,-1.8012,-1.7998,-1.8016,-1.8004,-1.8008,-1.8009,-1.801,-1.801,-1.7993,-1.8018,-1.8061,-1.8065,-1.8012,-1.8011,-1.8011,0,-1.7971,-1.7983,-1.7998,-1.8,-1.8002,-1.8009,-1.801,-1.8013,-1.8018,-1.8024,-1.8027,-1.8034,-1.8038,-1.8045,-1.8041,-1.8031,-1.806,-1.8046,-1.806,-1.806,-1.8065,-1.8065,-1.8109,-1.807,-1.807,-1.807,-1.807,0,-1.8002,-1.8015,-1.801,-1.8018,-1.8033,-1.8027,-1.8043,-1.8043,-1.8046,-1.8055,-1.8047,-1.8056,-1.805,-1.8059,-1.8057,-1.8073,-1.8075,-1.8074,-1.8073,-1.8074,-1.8074,-1.8076,-1.8074,-1.8071,-1.807,-1.807,-1.807,0,-1.8033,-1.803,-1.8045,-1.8046,-1.8047,-1.8058,-1.8059,-1.8067,-1.8066,-1.8078,-1.8081,-1.8079,-1.8089,-1.8086,-1.8097,-1.8096,-1.8115,-1.8112,-1.8114,-1.8113,-1.8127,-1.8126,-1.8174,-1.818,-1.8137,-1.8138,-1.8138,0,-1.8053,-1.8063,-1.8065,-1.807,-1.8072,-1.8081,-1.8086,-1.8081,-1.8087,-1.8093,-1.8101,-1.811,-1.8117,-1.8134,-1.8135,-1.8143,-1.814,-1.8156,-1.8141,-1.8142,-1.814,-1.8139,-1.814,-1.8159,-1.8159,-1.816,-1.816,0,-1.8088,-1.8086,-1.8093,-1.81,-1.8106,-1.8112,-1.8117,-1.8122,-1.8118,-1.8125,-1.8135,-1.814,-1.8152,-1.8162,-1.817,-1.8172,-1.8166,-1.8165,-1.8169,-1.817,-1.817,-1.817,-1.8121,-1.8164,-1.8163,-1.8163,-1.8163,-1.8163,-1.8114,-1.8122,-1.8125,-1.8134,-1.8137,-1.8142,-1.815,-1.815,-1.8159,-1.8167,-1.8164,-1.8176,-1.8181,-1.8191,-1.8195,-1.8205,-1.8198,-1.8204,-1.8205,-1.8206,-1.8208,-1.8169,-1.8206,-1.8206,-1.8206,-1.8206,-1.8206,0,-1.8148,-1.815,-1.8158,-1.8165,-1.8172,-1.8165,-1.817,-1.8177,-1.8187,-1.8192,-1.8199,-1.8212,-1.8221,-1.8223,-1.8232,-1.824,-1.8237,-1.8243,-1.8241,-1.8242,-1.8213,-1.8208,-1.8245,-1.8245,-1.8245,-1.8245,-1.8245,-1.8245,-1.8166,-1.8181,-1.818,-1.8196,-1.8198,-1.8209,-1.8212,-1.8217,-1.8221,-1.8235,-1.8243,-1.8244,-1.8247,-1.8257,-1.8266,-1.8267,-1.827,-1.8277,-1.8276,-1.8248,-1.8244,-1.824,-1.8236,-1.8278,-1.8278,-1.8304,-1.8305,-1.8305]},{"header":{"parameterUnit":"m.s-1","parameterCategory":1,"la1":30.2991,"la2":30.254,"lo1":-89.0895,"lo2":-89.0444,"dy":0.0017,"dx":0.0017,"nx":28,"ny":28,"refTime":"2025-04-21T09:00:00:Z","depth":0,"parameterNumber":3,"parameterNumberName":"V-component_of_WINDS"},"data":[0,0,0,0,0,0,0,0,0,0,0,0,0,0,0,0,0,0,0,0,0,0,0,0,0,0,0,0,0,0,0,0,0,0,0,0,0,0,0,0,0,0,0,0,0,0,0,0,0,0,0,0,0,0,0,0,0,0,3.6366,3.6366,0,3.6387,3.6388,3.6388,3.6387,3.6387,3.6387,3.6386,3.6406,3.6407,3.6407,0,0,0,0,0,0,0,0,0,0,0,0,0,3.6322,3.6323,3.6366,3.6366,3.6367,3.6387,3.6388,3.6388,3.6387,3.6387,3.6387,3.6386,3.6406,3.6407,3.6408,0,0,0,0,0,0,0,0,0,0,0,0,0,3.6342,3.6323,3.6366,3.6369,3.6369,3.6387,3.6388,3.6388,3.6387,3.6387,3.6387,3.6386,3.6405,3.6407,3.6408,3.6424,0,0,3.6411,3.6412,0,0,0,0,0,0,0,0,3.6341,3.6344,3.6368,3.6369,3.6369,3.6384,3.6379,3.64,3.6388,3.638,3.6386,3.6386,3.6399,3.6401,3.6406,3.6425,3.6425,3.6411,3.6412,3.6413,3.6413,0,0,0,0,0,0,0,3.634,3.6343,3.6374,3.6368,3.6369,3.6368,3.6371,3.6383,3.6392,3.6381,3.6381,3.6384,3.6399,3.6404,3.6406,3.6426,3.6411,3.6412,3.6413,3.6414,3.6459,3.646,0,0,0,0,0,0,3.6338,3.6342,3.6374,3.6375,3.6354,3.6369,3.6372,3.638,3.6392,3.6393,3.6384,3.6384,3.6403,3.6405,3.6407,3.6427,3.6413,3.6414,3.6414,3.6459,3.6459,3.646,0,0,0,0,0,0,3.6337,3.6341,3.6373,3.6358,3.6362,3.6371,3.6379,3.6381,3.6386,3.6394,3.6395,3.6388,3.6402,3.6405,3.642,3.6427,3.6414,3.6415,3.6458,3.6459,3.646,3.6466,0,0,0,0,0,0,3.6336,3.6341,3.6347,3.6359,3.6363,3.6386,3.638,3.6381,3.6388,3.6388,3.6398,3.6399,3.6402,3.6418,3.6421,3.6429,3.6416,3.6458,3.6459,3.6459,3.6465,3.6467,3.6469,0,0,0,0,0,3.6334,3.6347,3.6347,3.6351,3.6372,3.6387,3.6389,3.6393,3.6389,3.6395,3.6401,3.6399,3.6426,3.6419,3.6423,3.6431,3.6457,3.6458,3.6459,3.6465,3.6467,3.6468,0,0,0,0,0,0,3.6335,3.6349,3.6349,3.6366,3.6376,3.6387,3.6395,3.6395,3.6405,3.6404,3.6407,3.641,3.6424,3.6429,3.6422,3.6447,3.6441,3.6443,3.6444,3.6446,3.6447,3.6446,3.6417,0,0,0,0,0,3.6338,3.635,3.636,3.6375,3.6379,3.6386,3.6393,3.6395,3.6404,3.6408,3.6414,3.6422,3.6433,3.644,3.6449,3.6466,3.6468,3.6473,3.6475,3.6476,3.6478,3.6487,3.649,3.6464,3.6464,3.6464,0,0,3.6342,3.6351,3.6358,3.6375,3.6382,3.6394,3.6389,3.6402,3.641,3.6409,3.6424,3.6429,3.6438,3.6454,3.6462,3.6459,3.6485,3.6478,3.6479,3.6479,3.6489,3.6491,3.6493,3.6465,3.6464,3.6464,0,0,3.6357,3.6365,3.6378,3.6386,3.6398,3.6402,3.6405,3.6417,3.642,3.6435,3.6435,3.6445,3.6463,3.647,3.6475,3.6494,3.6493,3.6497,3.6505,3.6514,3.6516,3.6518,3.6525,3.6527,3.6498,3.6498,3.6498,0,3.6361,3.638,3.6385,3.6398,3.6405,3.6406,3.6419,3.6426,3.644,3.6444,3.6441,3.6464,3.647,3.6488,3.6493,3.6497,3.6501,3.6496,3.6516,3.6518,3.652,3.6526,3.6529,3.6499,3.6499,3.6499,3.6499,0,3.6385,3.6397,3.6406,3.6421,3.6429,3.6442,3.6448,3.6456,3.6458,3.6463,3.6478,3.6486,3.6498,3.6502,3.6503,3.652,3.6518,3.6515,3.6509,3.6522,3.6529,3.6531,3.6499,3.6499,3.6499,3.6499,0,0,3.64,3.6418,3.6421,3.6429,3.6442,3.6451,3.6464,3.6477,3.6483,3.6493,3.6503,3.6519,3.6517,3.6523,3.6525,3.6533,3.6548,3.653,3.653,3.6533,3.6567,3.657,3.6572,3.6547,3.6548,3.6548,3.6567,0,3.6416,3.644,3.6446,3.6466,3.6478,3.6479,3.649,3.6499,3.6504,3.6514,3.652,3.6531,3.6527,3.6531,3.6539,3.6545,3.6555,3.6543,3.6557,3.6557,3.6555,3.6576,3.6578,3.6595,3.6569,3.6569,3.657,0,3.6439,3.645,3.6472,3.6485,3.649,3.65,3.6512,3.6522,3.6532,3.6535,3.6543,3.6545,3.6557,3.6551,3.6568,3.656,3.6566,3.657,3.6571,3.6572,3.6564,3.6578,3.66,3.6603,3.6574,3.6573,3.6573,0,3.6448,3.6469,3.6485,3.6491,3.6506,3.6513,3.6519,3.6529,3.6537,3.6547,3.6552,3.6563,3.657,3.6578,3.6582,3.6577,3.66,3.6593,3.6603,3.6602,3.6607,3.6607,3.6631,3.6611,3.6611,3.6611,3.6611,0,3.6466,3.648,3.649,3.65,3.6515,3.652,3.6535,3.6541,3.655,3.656,3.6562,3.6572,3.6577,3.6587,3.659,3.6605,3.6607,3.661,3.6611,3.661,3.661,3.6614,3.6613,3.6611,3.6611,3.6611,3.6611,0,3.648,3.6487,3.6505,3.6518,3.6521,3.6532,3.6543,3.6552,3.6557,3.6571,3.6574,3.6582,3.6594,3.66,3.6614,3.6617,3.6633,3.6633,3.663,3.663,3.6639,3.6639,3.6667,3.6671,3.6648,3.6648,3.6649,0,3.6491,3.6501,3.6516,3.6524,3.6531,3.6543,3.6551,3.6557,3.6565,3.6578,3.6586,3.6598,3.6609,3.6628,3.6635,3.6646,3.6646,3.6656,3.6648,3.6647,3.6647,3.6646,3.6647,3.6657,3.6657,3.6657,3.6658,0,3.651,3.6513,3.6525,3.6539,3.6549,3.656,3.657,3.6576,3.6583,3.6592,3.6606,3.6614,3.663,3.6642,3.6654,3.666,3.666,3.666,3.6663,3.6662,3.666,3.6662,3.6634,3.6659,3.6659,3.6659,3.6659,3.6659,3.6523,3.6532,3.6545,3.6558,3.6567,3.6577,3.6587,3.6594,3.6605,3.6619,3.6622,3.6636,3.6646,3.6662,3.6668,3.6679,3.6677,3.668,3.6681,3.6682,3.6683,3.6659,3.6681,3.6681,3.6681,3.6681,3.6681,0,3.6542,3.655,3.6563,3.6578,3.6589,3.6589,3.6601,3.6609,3.6622,3.6632,3.6643,3.6658,3.667,3.6678,3.6691,3.6698,3.6698,3.6701,3.67,3.6702,3.6685,3.6681,3.67,3.67,3.67,3.67,3.67,3.67,3.6553,3.657,3.6575,3.6596,3.6604,3.6619,3.6626,3.6635,3.6643,3.666,3.6671,3.6676,3.6685,3.6699,3.671,3.6712,3.6716,3.6719,3.6721,3.6705,3.6703,3.6701,3.6698,3.672,3.672,3.6737,3.6737,3.6737]}]]